Printer-friendly version

IAU Minor Planet Center

Minor Planet Center

MPEC 1999-K08: COMET C/1999 J2 (SKIFF)

The following Minor Planet Electronic Circular may be linked-to from your own Web pages, but must not otherwise be redistributed electronically.


Read MPEC 1999-K07 Read MPEC 1999-K09


M.P.E.C. 1999-K08                                Issued 1999 May 18, 00:26 UT

     The Minor Planet Electronic Circulars contain information on unusual
         minor planets and routine data on comets.  They are published
   on behalf of Commission 20 of the International Astronomical Union by the
          Minor Planet Center, Smithsonian Astrophysical Observatory,
                          Cambridge, MA 02138, U.S.A.

             BMARSDEN@CFA.HARVARD.EDU or GWILLIAMS@CFA.HARVARD.EDU
          URL http://cfa-www.harvard.edu/iau/mpc.html  ISSN 1523-6714

                            COMET C/1999 J2 (SKIFF)

Observations:
    CJ99J020  C1999 05 12.33520 16 59 56.30 +63 43 22.4          16.7 T      704
    CJ99J020  C1999 05 12.35400 16 59 54.97 +63 43 22.2          17.7 T      704
    CJ99J020  C1999 05 12.36305 16 59 53.61 +63 43 20.9          18.7 T      704
    CJ99J020  C1999 05 12.37203 16 59 52.75 +63 43 22.9          17.8 T      704
    CJ99J020  C1999 05 13.40333 16 58 28.92 +63 43 15.4          16.0 T      699
    CJ99J020  C1999 05 13.42119 16 58 27.59 +63 43 15.7                      699
    CJ99J020  C1999 05 13.43905 16 58 26.12 +63 43 15.2                      699
    CJ99J020  C1999 05 13.87581 16 57 50.18 +63 43 06.8          15.5 T      046
    CJ99J020  C1999 05 13.87745 16 57 50.08 +63 43 07.3                      046
    CJ99J020  C1999 05 13.87869 16 57 49.95 +63 43 06.9                      046
    CJ99J020  C1999 05 13.88176 16 57 49.70 +63 43 07.0                      046
    CJ99J020  C1999 05 13.88312 16 57 49.54 +63 43 07.0                      046
    CJ99J020  C1999 05 14.03905 16 57 36.80 +63 43 05.1                      758
    CJ99J020  C1999 05 14.04486 16 57 36.31 +63 43 04.2                      758
    CJ99J020  C1999 05 14.04969 16 57 35.94 +63 43 03.2                      758
    CJ99J020  C1999 05 14.05766 16 57 35.35 +63 43 02.9                      758
    CJ99J020  C1999 05 14.09965 16 57 31.90 +63 43 02.9          14.8 T      784
    CJ99J020  C1999 05 14.10833 16 57 31.08 +63 43 02.8          15.4 T      784
    CJ99J020  C1999 05 14.12396 16 57 29.85 +63 43 02.5          15.1 T      784
    CJ99J020  C1999 05 14.15854 16 57 27.24 +63 43 01.9                      719
    CJ99J020  C1999 05 14.16153 16 57 26.86 +63 43 02.0                      719
    CJ99J020  C1999 05 14.23733 16 57 20.52 +63 42 59.7          15.8 T      713
    CJ99J020  C1999 05 14.25781 16 57 18.85 +63 42 59.6          15.4 T      713
    CJ99J020  C1999 05 14.26105 16 57 18.55 +63 42 59.5                      719
    CJ99J020  C1999 05 14.26270 16 57 18.42 +63 43 00.4                      719
    CJ99J020  C1999 05 14.27058 16 57 17.79 +63 42 59.5          15.7 T      713
    CJ99J020  C1999 05 14.53831 16 56 55.77 +63 42 52.8          15.7 T      367
    CJ99J020  C1999 05 14.54248 16 56 55.40 +63 42 52.7                      367
    CJ99J020  C1999 05 14.54664 16 56 55.05 +63 42 52.4                      367
    CJ99J020  C1999 05 14.55081 16 56 54.66 +63 42 52.1                      367
    CJ99J020   1999 05 14.63194 16 56 47.98 +63 42 51.7          16.2 T      372
    CJ99J020   1999 05 14.68646 16 56 43.28 +63 42 50.0          16.3 T      372
    CJ99J020  C1999 05 14.69809 16 56 42.45 +63 42 49.1          15.9 T      360
    CJ99J020  C1999 05 14.70069 16 56 42.22 +63 42 49.2                      360
    CJ99J020  C1999 05 14.70330 16 56 41.98 +63 42 49.1                      360
    CJ99J020  C1999 05 14.72294 16 56 40.41 +63 42 48.6          16.0 T      867
    CJ99J020  C1999 05 14.72954 16 56 39.84 +63 42 48.5                      867
    CJ99J020  C1999 05 14.73613 16 56 39.30 +63 42 48.4                      867
    CJ99J020  C1999 05 14.90046 16 56 25.86 +63 42 43.4          15.9 T      620
    CJ99J020  C1999 05 14.92777 16 56 23.58 +63 42 42.6          15.9 T      620
    CJ99J020  C1999 05 14.96574 16 56 20.36 +63 42 41.4          16.0 T      620
    CJ99J020  C1999 05 15.94523 16 54 59.18 +63 42 07.5          15.0 T      118
    CJ99J020  C1999 05 15.94788 16 54 58.95 +63 42 07.3                      118
    CJ99J020  C1999 05 15.95066 16 54 58.71 +63 42 07.6                      118
    CJ99J020  C1999 05 16.08113 16 54 47.87 +63 42 02.0                      046
    CJ99J020  C1999 05 16.08218 16 54 47.69 +63 42 02.9                      046
    CJ99J020  C1999 05 16.23966 16 54 34.93 +63 41 56.1          15.4 T      699
    CJ99J020  C1999 05 16.24985 16 54 34.08 +63 41 55.8                      699
    CJ99J020  C1999 05 16.26003 16 54 33.19 +63 41 55.7                      699
    CJ99J020  C1999 05 16.50312 16 54 12.88 +63 41 43.8          15.7 T      367
    CJ99J020  C1999 05 16.50937 16 54 12.35 +63 41 43.4                      367
    CJ99J020  C1999 05 16.51563 16 54 11.76 +63 41 43.4                      367
    CJ99J020  C1999 05 16.88745 16 53 40.71 +63 41 26.2                      108
    CJ99J020  C1999 05 16.89378 16 53 40.22 +63 41 24.6          15.7 T      557
    CJ99J020  C1999 05 16.89671 16 53 40.21 +63 41 24.9                      108
    CJ99J020  C1999 05 16.90203 16 53 39.46 +63 41 22.7          16.5 T      108
    CJ99J020  C1999 05 16.92075 16 53 37.97 +63 41 23.3                      557
    CJ99J020  C1999 05 17.02946 16 53 28.86 +63 41 17.6          14.9 T      046
    CJ99J020  C1999 05 17.03117 16 53 28.77 +63 41 17.5          15.9 N      046
    CJ99J020  C1999 05 17.03233 16 53 28.66 +63 41 17.5                      046
    CJ99J020  C1999 05 17.03350 16 53 28.59 +63 41 17.3                      046
    CJ99J020  C1999 05 17.03475 16 53 28.51 +63 41 17.5                      046
    CJ99J020  C1999 05 17.10043 16 53 23.16 +63 41 14.1          15.5 T      758
    CJ99J020  C1999 05 17.10245 16 53 22.94 +63 41 14.8          15.2 T      758
    CJ99J020  C1999 05 17.10524 16 53 22.78 +63 41 14.0          15.3 T      758
    CJ99J020  C1999 05 17.39199 16 52 58.70 +63 40 59.8          15.8 T      699
    CJ99J020  C1999 05 17.40219 16 52 57.89 +63 40 59.0                      699
    CJ99J020  C1999 05 17.41237 16 52 56.78 +63 40 58.3                      699
    CJ99J020  C1999 05 17.50139 16 52 49.60 +63 40 52.3          15.8 T      367
    CJ99J020  C1999 05 17.50714 16 52 49.23 +63 40 52.7          16.0 T      365
    CJ99J020  C1999 05 17.50764 16 52 49.07 +63 40 52.1                      367
    CJ99J020  C1999 05 17.51389 16 52 48.50 +63 40 51.6                      367
    CJ99J020  C1999 05 17.52250 16 52 47.86 +63 40 51.0                      365
    CJ99J020  C1999 05 17.88566 16 52 17.34 +63 40 29.7                      557
    CJ99J020  C1999 05 17.89639 16 52 16.43 +63 40 29.1                      557

Observer details:
046 Klet.  Observers J. Ticha, M. Tichy.  Measurer M. Tichy.
    0.57-m f/5.2 reflector + CCD.
108 Montelupo.  Observers M. Tombelli, A. Boattini, L. Tesi, D. Guidetti,
    G. Forti.  Measurers M. Tombelli, A. Boattini, L. Tesi, S. Bartolini,
    G. Forti.  0.30-m f/5.7 Schmidt-Cassegrain + CCD.
118 Modra.  Observers A. Galad, J. Toth.  0.6-m f/5.5 reflector + CCD.
360 Kuma Kogen.  Observer A. Nakamura.  0.60-m f/6.0 Ritchey-Chretien + CCD.
365 Kashihara.  Observer F. Uto.  0.20-m f/4.0 reflector + CCD.
367 Yatsuka.  Observer H. Abe.  0.26-m f/6.0 reflector + CCD.
372 Geisei.  Observer T. Seki.  0.60-m f/3.5 reflector.
557 Ondrejov.  Observers P. Pravec, P. Kusnirak.  0.65-m f/3.6 reflector
    + CCD.
620 Observatorio Astronomico de Mallorca.  Observers A. Lopez, R. Pacheco.
    0.30-m f/3.3 Schmidt-Cassegrain + CCD.
699 Lowell Observatory-LONEOS.  Observer B. A. Skiff.  Measurer B. W. Koehn.
704 Lincoln Laboratory ETS, New Mexico.  Observers M. Blythe, F. Shelly,
    M. Bezpalko, M. Elowitz.  Measurers J. Stuart, H. Viggh, R. Sayer.  1.0-m
    f/2.15 reflector + CCD.
713 Thornton.  Observer R. A. Koff.  0.20-m f/10 Schmidt-Cassegrain + CCD.
719 Etscorn Observatory.  Observer D. A. Klinglesmith III.  0.355-m
    Schmidt-Cassegrain + CCD.
758 BCC Observatory, Cocoa.  Observer I. P. Griffin.  0.30-m f/5 Maksutov
    + CCD.
784 Stull Observatory, Alfred University.  Observer D. R. DeGraff.
    0.81-m f/4 reflector + CCD.
867 Saji Observatory.  Observers M. Yamanishi, A. Miyamoto, M. Aimoto,
    T. Oribe.  1.03-m f/4.8 reflector + CCD.

Orbital elements:
    C/1999 J2 (Skiff)
T 1999 Oct. 23.960 TT                                   Marsden
q   7.48613              (2000.0)            P               Q
                   Peri.  114.701       -0.316496       -0.593419
                   Node    47.826       -0.615136       -0.465497
e   1.0            Incl.   86.940       +0.722107       -0.656633
From 73 observations 1999 May 12-17.

